User: anonymous   Login
Location: Shepherdstown, WV
(39.4326°N, 77.8042°W)
Time: 03:55:50
(UTC-04:00)
Language:

Transit 2A Rocket - Orbit

View from above orbital plane
View from above orbital plane
View from above satellite
View from above satellite

Ground track
Ground track

The orbit data is extracted from the following two-line orbital elements,

1 00047U 60007C   21211.83700501  .00000037  00000-0  33266-4 0  9999
2 00047  66.6659 143.0032 0227177   2.5267 357.6925 14.42163208193564
Epoch (UTC): 30 July 2021 20:05:17
Eccentricity: 0.0227177
inclination: 66.6659°
perigee height: 589 km
apogee height: 913 km
right ascension of ascending node: 143.0032°
argument of perigee: 2.5267°
revolutions per day: 14.42163208
mean anomaly at epoch: 357.6925°
orbit number at epoch: 19356

The dashed part of the orbit path shows where the satellite is in the earth's shadow,  

DLR